N13FA KOKC-KAUS

Flight info

Callsign N13FA
Flight time 1h 19m
Altitude 26000
Route MUDDE3 MOOSE UKW MQP AGJ SZAGI SZAGI3
Aircraft TBM9/L-SDFGRWY/S

Departure

Time 2026-04-26 17:48
Airport OKC Will Rogers World Airport (KOKC)

Arrival

Time 2026-04-26 19:07
Airport Austin Bergstrom International Airport (KAUS)
Time Latitude Longitude Altitude Speed Heading
2026-04-26 17:36 35.39624 -97.58565 1284 ft 0 kts 337°
2026-04-26 17:42 35.39629 -97.58568 1287 ft 0 kts 332°
2026-04-26 17:43 35.39668 -97.58593 1285 ft 10 kts 327°
2026-04-26 17:43 35.39714 -97.58656 1288 ft 11 kts 288°
2026-04-26 17:43 35.39761 -97.58723 1288 ft 12 kts 350°
2026-04-26 17:43 35.39842 -97.58728 1287 ft 12 kts
2026-04-26 17:44 35.39925 -97.58725 1289 ft 12 kts
2026-04-26 17:44 35.40004 -97.58695 1290 ft 12 kts 28°
2026-04-26 17:44 35.40081 -97.58647 1291 ft 13 kts 19°
2026-04-26 17:44 35.40168 -97.58627 1293 ft 13 kts
2026-04-26 17:45 35.40259 -97.58628 1294 ft 13 kts
2026-04-26 17:45 35.40356 -97.58628 1294 ft 14 kts 359°
2026-04-26 17:45 35.40455 -97.58632 1294 ft 11 kts 344°
2026-04-26 17:45 35.40504 -97.58696 1294 ft 3 kts 273°
2026-04-26 17:46 35.40505 -97.58714 1294 ft 6 kts 273°
2026-04-26 17:46 35.40506 -97.58745 1294 ft 0 kts 270°
2026-04-26 17:47 35.40506 -97.58774 1293 ft 13 kts 270°
2026-04-26 17:47 35.40503 -97.58858 1293 ft 15 kts 253°
2026-04-26 17:47 35.40407 -97.58895 1293 ft 28 kts 179°
2026-04-26 17:47 35.40021 -97.58901 1336 ft 77 kts 177°
2026-04-26 17:48 35.39437 -97.58879 1625 ft 95 kts 173°
2026-04-26 17:48 35.38662 -97.58863 1801 ft 127 kts 174°
2026-04-26 17:48 35.37784 -97.58830 2401 ft 121 kts 175°
2026-04-26 17:48 35.36939 -97.58741 2967 ft 126 kts 174°
2026-04-26 17:49 35.36047 -97.58668 3427 ft 128 kts 176°
2026-04-26 17:49 35.35162 -97.58579 3835 ft 128 kts 175°
2026-04-26 17:49 35.34281 -97.58442 4278 ft 129 kts 173°
2026-04-26 17:49 35.33390 -97.58299 4685 ft 129 kts 174°
2026-04-26 17:50 35.32496 -97.58149 5064 ft 130 kts 174°
2026-04-26 17:50 35.31607 -97.57996 5458 ft 131 kts 174°
2026-04-26 17:50 35.30705 -97.57837 5849 ft 132 kts 178°
2026-04-26 17:50 35.29779 -97.57778 6230 ft 133 kts 179°
2026-04-26 17:51 35.28848 -97.57695 6589 ft 135 kts 180°
2026-04-26 17:51 35.27900 -97.57616 6934 ft 138 kts 181°
2026-04-26 17:51 35.26936 -97.57537 7294 ft 139 kts 181°
2026-04-26 17:51 35.25959 -97.57456 7727 ft 142 kts 182°
2026-04-26 17:52 35.24973 -97.57374 8220 ft 143 kts 183°
2026-04-26 17:52 35.23968 -97.57294 8703 ft 146 kts 183°
2026-04-26 17:52 35.22939 -97.57214 9127 ft 150 kts 183°
2026-04-26 17:52 35.21889 -97.57129 9650 ft 152 kts 184°
2026-04-26 17:53 35.20825 -97.57043 10144 ft 154 kts 185°
2026-04-26 17:53 35.19765 -97.56958 10657 ft 155 kts 185°
2026-04-26 17:53 35.18665 -97.56869 11185 ft 157 kts 185°
2026-04-26 17:54 35.16481 -97.56696 12156 ft 161 kts 185°
2026-04-26 17:54 35.15363 -97.56605 12699 ft 162 kts 185°
2026-04-26 17:54 35.14235 -97.56513 13276 ft 163 kts 186°
2026-04-26 17:54 35.13099 -97.56424 13746 ft 165 kts 186°
2026-04-26 17:55 35.11947 -97.56332 14200 ft 166 kts 186°
2026-04-26 17:55 35.10791 -97.56238 14670 ft 167 kts 187°
2026-04-26 17:55 35.09627 -97.56143 15182 ft 167 kts 188°
2026-04-26 17:55 35.08463 -97.56052 15639 ft 169 kts 188°
2026-04-26 17:56 35.07286 -97.55959 16047 ft 170 kts 189°
2026-04-26 17:56 35.04921 -97.55770 16822 ft 172 kts 189°
2026-04-26 17:57 35.02514 -97.55576 17700 ft 174 kts 190°
2026-04-26 17:57 35.01300 -97.55479 18122 ft 175 kts 190°
2026-04-26 17:57 35.00078 -97.55381 18478 ft 177 kts 190°
2026-04-26 17:57 34.98849 -97.55283 18821 ft 178 kts 190°
2026-04-26 17:58 34.95106 -97.54975 19899 ft 183 kts 190°
2026-04-26 17:59 34.92544 -97.54722 20801 ft 188 kts 186°
2026-04-26 17:59 34.91239 -97.54531 21258 ft 190 kts 187°
2026-04-26 17:59 34.89918 -97.54344 21738 ft 191 kts 187°
2026-04-26 17:59 34.88586 -97.54157 22158 ft 194 kts 186°
2026-04-26 18:00 34.87237 -97.53963 22656 ft 196 kts 186°
2026-04-26 18:00 34.85875 -97.53768 23166 ft 198 kts 186°
2026-04-26 18:00 34.84498 -97.53574 23621 ft 200 kts 186°
2026-04-26 18:00 34.83111 -97.53377 24054 ft 201 kts 186°
2026-04-26 18:01 34.81731 -97.53180 24479 ft 203 kts 187°
2026-04-26 18:01 34.80319 -97.52980 24904 ft 205 kts 187°
2026-04-26 18:01 34.78901 -97.52778 25339 ft 206 kts 187°
2026-04-26 18:01 34.77469 -97.52575 25757 ft 209 kts 188°
2026-04-26 18:02 34.75960 -97.52377 25799 ft 229 kts 187°
2026-04-26 18:02 34.74885 -97.52235 25813 ft 241 kts 186°
2026-04-26 18:02 34.72529 -97.51902 25814 ft 266 kts 185°
2026-04-26 18:02 34.70636 -97.51629 25814 ft 281 kts 184°
2026-04-26 18:03 34.68663 -97.51346 25814 ft 289 kts 184°
2026-04-26 18:03 34.66630 -97.51057 25813 ft 299 kts 184°
2026-04-26 18:03 34.64536 -97.50761 25809 ft 307 kts 183°
2026-04-26 18:03 34.62421 -97.50462 25808 ft 313 kts 183°
2026-04-26 18:04 34.60243 -97.50152 25804 ft 317 kts 183°
2026-04-26 18:04 34.58035 -97.49839 25800 ft 321 kts 183°
2026-04-26 18:04 34.55806 -97.49524 25801 ft 323 kts 183°
2026-04-26 18:05 34.51312 -97.48888 25791 ft 326 kts 183°
2026-04-26 18:05 34.49055 -97.48570 25783 ft 327 kts 183°
2026-04-26 18:05 34.46787 -97.48250 25777 ft 328 kts 183°
2026-04-26 18:05 34.44512 -97.47930 25767 ft 329 kts 183°
2026-04-26 18:06 34.42239 -97.47609 25763 ft 330 kts 183°
2026-04-26 18:06 34.39953 -97.47287 25756 ft 330 kts 183°
2026-04-26 18:06 34.37672 -97.46966 25756 ft 330 kts 183°
2026-04-26 18:06 34.35388 -97.46645 25756 ft 331 kts 183°
2026-04-26 18:07 34.33119 -97.46535 25764 ft 323 kts 192°
2026-04-26 18:07 34.30907 -97.46800 25771 ft 316 kts 199°
2026-04-26 18:07 34.28789 -97.47405 25772 ft 310 kts 206°
2026-04-26 18:07 34.27450 -97.47977 25771 ft 306 kts 211°
2026-04-26 18:08 34.24792 -97.49227 25767 ft 307 kts 210°
2026-04-26 18:08 34.22815 -97.50135 25764 ft 307 kts 210°
2026-04-26 18:08 34.20826 -97.51062 25763 ft 307 kts 210°
2026-04-26 18:08 34.18839 -97.51993 25760 ft 307 kts 210°
2026-04-26 18:09 34.16837 -97.52926 25758 ft 307 kts 210°
2026-04-26 18:09 34.14844 -97.53853 25755 ft 307 kts 210°
2026-04-26 18:09 34.12853 -97.54779 25753 ft 307 kts 210°
2026-04-26 18:09 34.10863 -97.55705 25753 ft 307 kts 210°
2026-04-26 18:10 34.08866 -97.56634 25752 ft 306 kts 210°
2026-04-26 18:10 34.06880 -97.57556 25753 ft 306 kts 210°
2026-04-26 18:10 34.04889 -97.58481 25753 ft 306 kts 210°
2026-04-26 18:10 34.02899 -97.59405 25749 ft 306 kts 210°
2026-04-26 18:11 34.00913 -97.60326 25749 ft 306 kts 210°
2026-04-26 18:11 33.98928 -97.61247 25753 ft 306 kts 210°
2026-04-26 18:11 33.96937 -97.62170 25753 ft 305 kts 210°
2026-04-26 18:11 33.94957 -97.63087 25753 ft 305 kts 210°
2026-04-26 18:12 33.92973 -97.64006 25753 ft 305 kts 210°
2026-04-26 18:12 33.91016 -97.64911 25754 ft 305 kts 210°
2026-04-26 18:12 33.89033 -97.65829 25754 ft 305 kts 210°
2026-04-26 18:12 33.87053 -97.66744 25753 ft 305 kts 210°
2026-04-26 18:13 33.85071 -97.67660 25752 ft 305 kts 211°
2026-04-26 18:13 33.83096 -97.68573 25753 ft 304 kts 210°
2026-04-26 18:13 33.81116 -97.69486 25755 ft 304 kts 210°
2026-04-26 18:13 33.80444 -97.69796 25756 ft 304 kts 210°
2026-04-26 18:14 33.77154 -97.71314 25760 ft 304 kts 211°
2026-04-26 18:14 33.75176 -97.72226 25758 ft 304 kts 210°
2026-04-26 18:14 33.73200 -97.73137 25756 ft 305 kts 210°
2026-04-26 18:14 33.71220 -97.74048 25754 ft 305 kts 211°
2026-04-26 18:15 33.69242 -97.74959 25756 ft 305 kts 211°
2026-04-26 18:15 33.67280 -97.75862 25759 ft 304 kts 211°
2026-04-26 18:15 33.65302 -97.76771 25756 ft 304 kts 211°
2026-04-26 18:15 33.63327 -97.77678 25757 ft 304 kts 211°
2026-04-26 18:16 33.61352 -97.78585 25757 ft 304 kts 211°
2026-04-26 18:16 33.57409 -97.80397 25760 ft 304 kts 211°
2026-04-26 18:16 33.55431 -97.81304 25765 ft 304 kts 211°
2026-04-26 18:17 33.53417 -97.82125 25771 ft 308 kts 205°
2026-04-26 18:17 33.51296 -97.82655 25776 ft 313 kts 200°
2026-04-26 18:17 33.49150 -97.83112 25780 ft 313 kts 201°
2026-04-26 18:17 33.47010 -97.83589 25786 ft 313 kts 201°
2026-04-26 18:18 33.45594 -97.83905 25793 ft 313 kts 201°
2026-04-26 18:18 33.42760 -97.84524 25796 ft 312 kts 201°
2026-04-26 18:18 33.40624 -97.84989 25807 ft 311 kts 201°
2026-04-26 18:18 33.38497 -97.85456 25812 ft 311 kts 201°
2026-04-26 18:19 33.37056 -97.85772 25820 ft 311 kts 201°
2026-04-26 18:19 33.34237 -97.86389 25827 ft 311 kts 201°
2026-04-26 18:19 33.32799 -97.86703 25831 ft 311 kts 201°
2026-04-26 18:19 33.30669 -97.87167 25837 ft 311 kts 201°
2026-04-26 18:20 33.28548 -97.87630 25848 ft 310 kts 201°
2026-04-26 18:20 33.26425 -97.88094 25851 ft 310 kts 201°
2026-04-26 18:20 33.24300 -97.88558 25852 ft 310 kts 201°
2026-04-26 18:20 33.22898 -97.88865 25854 ft 310 kts 201°
2026-04-26 18:21 33.20084 -97.89477 25852 ft 310 kts 201°
2026-04-26 18:21 33.17964 -97.89939 25852 ft 310 kts 201°
2026-04-26 18:21 33.15841 -97.90402 25850 ft 310 kts 201°
2026-04-26 18:21 33.13722 -97.90863 25851 ft 310 kts 201°
2026-04-26 18:22 33.11604 -97.91323 25851 ft 310 kts 201°
2026-04-26 18:22 33.09488 -97.91783 25848 ft 309 kts 201°
2026-04-26 18:22 33.07369 -97.92244 25841 ft 309 kts 201°
2026-04-26 18:22 33.05248 -97.92704 25835 ft 309 kts 201°
2026-04-26 18:23 33.03132 -97.93165 25833 ft 309 kts 201°
2026-04-26 18:23 33.01010 -97.93625 25826 ft 310 kts 201°
2026-04-26 18:23 32.98890 -97.94084 25901 ft 309 kts 201°
2026-04-26 18:23 32.96773 -97.94542 25901 ft 309 kts 201°
2026-04-26 18:24 32.94651 -97.95003 25816 ft 309 kts 201°
2026-04-26 18:24 32.92534 -97.95461 25818 ft 309 kts 201°
2026-04-26 18:24 32.90414 -97.95921 25822 ft 309 kts 201°
2026-04-26 18:24 32.88318 -97.96374 25825 ft 309 kts 201°
2026-04-26 18:25 32.86200 -97.96831 25828 ft 309 kts 201°
2026-04-26 18:25 32.84083 -97.97289 25831 ft 309 kts 201°
2026-04-26 18:25 32.81961 -97.97748 25835 ft 309 kts 201°
2026-04-26 18:25 32.79845 -97.98205 25835 ft 309 kts 201°
2026-04-26 18:26 32.77724 -97.98662 25834 ft 310 kts 201°
2026-04-26 18:26 32.75599 -97.99121 25833 ft 310 kts 201°
2026-04-26 18:26 32.73478 -97.99579 25831 ft 310 kts 201°
2026-04-26 18:26 32.71346 -97.99893 25837 ft 316 kts 194°
2026-04-26 18:27 32.69150 -98.00079 25831 ft 315 kts 195°
2026-04-26 18:27 32.66966 -98.00298 25830 ft 315 kts 195°
2026-04-26 18:27 32.64780 -98.00516 25825 ft 315 kts 195°
2026-04-26 18:27 32.62592 -98.00721 25826 ft 315 kts 195°
2026-04-26 18:28 32.60405 -98.00924 25823 ft 315 kts 195°
2026-04-26 18:28 32.58218 -98.01133 25815 ft 315 kts 195°
2026-04-26 18:28 32.56033 -98.01343 25811 ft 315 kts 195°
2026-04-26 18:28 32.53846 -98.01551 25818 ft 315 kts 195°
2026-04-26 18:29 32.51678 -98.01755 25816 ft 315 kts 195°
2026-04-26 18:29 32.49487 -98.01964 25815 ft 316 kts 195°
2026-04-26 18:29 32.47294 -98.02172 25816 ft 316 kts 195°
2026-04-26 18:29 32.45095 -98.02380 25814 ft 316 kts 195°
2026-04-26 18:30 32.42902 -98.02588 25815 ft 316 kts 195°
2026-04-26 18:30 32.40716 -98.02794 25815 ft 316 kts 195°
2026-04-26 18:30 32.38520 -98.03002 25817 ft 316 kts 195°
2026-04-26 18:30 32.36327 -98.03211 25851 ft 316 kts 195°
2026-04-26 18:31 32.34130 -98.03418 25855 ft 316 kts 195°
2026-04-26 18:31 32.31936 -98.03626 25860 ft 317 kts 195°
2026-04-26 18:31 32.29741 -98.03833 25867 ft 317 kts 195°
2026-04-26 18:31 32.27537 -98.04040 25871 ft 316 kts 195°
2026-04-26 18:32 32.25368 -98.04244 25869 ft 316 kts 195°
2026-04-26 18:32 32.23178 -98.04452 25872 ft 316 kts 195°
2026-04-26 18:32 32.20985 -98.04659 25877 ft 316 kts 195°
2026-04-26 18:32 32.18789 -98.04865 25875 ft 316 kts 195°
2026-04-26 18:33 32.16591 -98.05072 25872 ft 316 kts 195°
2026-04-26 18:33 32.14398 -98.05279 25871 ft 316 kts 195°
2026-04-26 18:33 32.12205 -98.05485 25867 ft 316 kts 195°
2026-04-26 18:33 32.10007 -98.05691 25864 ft 316 kts 195°
2026-04-26 18:34 32.07806 -98.05898 25860 ft 316 kts 195°
2026-04-26 18:34 32.05612 -98.06104 25857 ft 316 kts 195°
2026-04-26 18:34 32.03414 -98.06311 25851 ft 317 kts 195°
2026-04-26 18:34 32.01220 -98.06517 25847 ft 317 kts 195°
2026-04-26 18:35 31.99016 -98.06724 25840 ft 317 kts 195°
2026-04-26 18:35 31.96817 -98.06929 25839 ft 317 kts 195°
2026-04-26 18:35 31.94621 -98.07135 25834 ft 317 kts 195°
2026-04-26 18:35 31.92447 -98.07339 25838 ft 316 kts 195°
2026-04-26 18:36 31.90251 -98.07544 25846 ft 316 kts 195°
2026-04-26 18:36 31.88055 -98.07749 25850 ft 316 kts 195°
2026-04-26 18:36 31.85862 -98.07955 25854 ft 316 kts 195°
2026-04-26 18:36 31.83676 -98.08159 25859 ft 316 kts 195°
2026-04-26 18:37 31.81484 -98.08364 25863 ft 316 kts 195°
2026-04-26 18:37 31.79297 -98.08568 25869 ft 316 kts 195°
2026-04-26 18:37 31.77108 -98.08773 25873 ft 315 kts 195°
2026-04-26 18:37 31.74926 -98.08976 25879 ft 315 kts 195°
2026-04-26 18:38 31.72739 -98.09180 25882 ft 315 kts 195°
2026-04-26 18:38 31.70547 -98.09385 25881 ft 316 kts 195°
2026-04-26 18:38 31.68356 -98.09589 25882 ft 316 kts 195°
2026-04-26 18:38 31.66167 -98.09794 25879 ft 316 kts 195°
2026-04-26 18:39 31.63973 -98.09998 25877 ft 316 kts 195°
2026-04-26 18:39 31.61778 -98.10202 25880 ft 316 kts 195°
2026-04-26 18:39 31.59581 -98.10406 25881 ft 316 kts 195°
2026-04-26 18:39 31.57392 -98.10610 25881 ft 316 kts 195°
2026-04-26 18:40 31.55227 -98.10811 25874 ft 317 kts 195°
2026-04-26 18:40 31.53030 -98.11016 25867 ft 317 kts 195°
2026-04-26 18:40 31.50824 -98.11220 25867 ft 317 kts 195°
2026-04-26 18:40 31.48620 -98.11425 25861 ft 318 kts 195°
2026-04-26 18:41 31.46407 -98.11631 25851 ft 319 kts 195°
2026-04-26 18:41 31.44196 -98.11836 25852 ft 319 kts 194°
2026-04-26 18:41 31.41975 -98.12042 25849 ft 320 kts 194°
2026-04-26 18:41 31.39756 -98.12247 25844 ft 320 kts 194°
2026-04-26 18:42 31.37533 -98.12452 25841 ft 321 kts 194°
2026-04-26 18:42 31.35311 -98.12658 25838 ft 321 kts 194°
2026-04-26 18:42 31.33080 -98.12865 25836 ft 321 kts 194°
2026-04-26 18:42 31.30853 -98.13071 25830 ft 321 kts 194°
2026-04-26 18:43 31.28625 -98.13276 25832 ft 321 kts 194°
2026-04-26 18:43 31.26391 -98.13483 25830 ft 321 kts 194°
2026-04-26 18:43 31.24166 -98.13688 25834 ft 321 kts 194°
2026-04-26 18:43 31.21945 -98.13957 25840 ft 317 kts 199°
2026-04-26 18:44 31.19829 -98.14543 25851 ft 310 kts 206°
2026-04-26 18:44 31.17858 -98.15404 25853 ft 304 kts 213°
2026-04-26 18:44 31.16001 -98.16541 25854 ft 299 kts 220°
2026-04-26 18:44 31.14305 -98.17907 25849 ft 295 kts 225°
2026-04-26 18:45 31.12659 -98.19348 25844 ft 296 kts 224°
2026-04-26 18:45 31.10998 -98.20774 25839 ft 296 kts 224°
2026-04-26 18:45 31.09344 -98.22205 25839 ft 296 kts 224°
2026-04-26 18:45 31.07693 -98.23644 25837 ft 296 kts 225°
2026-04-26 18:46 31.06032 -98.25086 25840 ft 296 kts 224°
2026-04-26 18:46 31.04378 -98.26519 25843 ft 296 kts 224°
2026-04-26 18:46 31.02726 -98.27951 25760 ft 298 kts 224°
2026-04-26 18:46 31.00954 -98.29320 25247 ft 311 kts 217°
2026-04-26 18:47 30.98989 -98.30430 24751 ft 318 kts 210°
2026-04-26 18:47 30.96856 -98.31250 24261 ft 327 kts 203°
2026-04-26 18:47 30.94636 -98.31733 23776 ft 335 kts 195°
2026-04-26 18:47 30.92264 -98.31860 23214 ft 343 kts 186°
2026-04-26 18:48 30.89869 -98.31589 22591 ft 349 kts 178°
2026-04-26 18:48 30.87491 -98.30908 21991 ft 355 kts 169°
2026-04-26 18:48 30.85218 -98.29825 21394 ft 353 kts 160°
2026-04-26 18:48 30.83110 -98.28368 20810 ft 352 kts 151°
2026-04-26 18:49 30.81213 -98.26585 20233 ft 349 kts 142°
2026-04-26 18:49 30.79597 -98.24549 19666 ft 338 kts 134°
2026-04-26 18:49 30.78278 -98.22336 19101 ft 328 kts 125°
2026-04-26 18:49 30.77239 -98.20001 18561 ft 322 kts 119°
2026-04-26 18:50 30.76281 -98.17689 18012 ft 310 kts 120°
2026-04-26 18:50 30.75363 -98.15516 17406 ft 293 kts 120°
2026-04-26 18:50 30.74470 -98.13400 16814 ft 291 kts 120°
2026-04-26 18:50 30.73583 -98.11295 16230 ft 288 kts 120°
2026-04-26 18:51 30.72708 -98.09212 15661 ft 286 kts 120°
2026-04-26 18:51 30.71802 -98.07176 15110 ft 281 kts 126°
2026-04-26 18:51 30.70757 -98.05271 14569 ft 279 kts 127°
2026-04-26 18:51 30.69715 -98.03376 14023 ft 277 kts 127°
2026-04-26 18:52 30.68696 -98.01504 13482 ft 269 kts 127°
2026-04-26 18:52 30.67740 -97.99720 12791 ft 255 kts 126°
2026-04-26 18:52 30.66805 -97.97985 12002 ft 252 kts 127°
2026-04-26 18:52 30.65873 -97.96290 11253 ft 253 kts 127°
2026-04-26 18:53 30.64933 -97.94569 10511 ft 252 kts 126°
2026-04-26 18:53 30.64011 -97.92864 9784 ft 246 kts 126°
2026-04-26 18:53 30.63107 -97.91206 8987 ft 240 kts 126°
2026-04-26 18:53 30.62219 -97.89579 8215 ft 237 kts 126°
2026-04-26 18:54 30.61341 -97.87965 7453 ft 234 kts 126°
2026-04-26 18:54 30.60487 -97.86395 7049 ft 220 kts 127°
2026-04-26 18:54 30.59578 -97.85065 6861 ft 207 kts 136°
2026-04-26 18:54 30.58632 -97.83794 6480 ft 208 kts 134°
2026-04-26 18:55 30.57721 -97.82519 6100 ft 207 kts 134°
2026-04-26 18:55 30.56813 -97.81242 5716 ft 204 kts 133°
2026-04-26 18:55 30.55937 -97.80004 5318 ft 193 kts 133°
2026-04-26 18:55 30.55094 -97.78825 4915 ft 186 kts 133°
2026-04-26 18:56 30.54272 -97.77694 4520 ft 180 kts 133°
2026-04-26 18:56 30.53473 -97.76604 4124 ft 175 kts 133°
2026-04-26 18:56 30.52696 -97.75541 3732 ft 170 kts 134°
2026-04-26 18:56 30.51920 -97.74541 3345 ft 164 kts 144°
2026-04-26 18:57 30.51009 -97.73785 3019 ft 158 kts 148°
2026-04-26 18:57 30.50707 -97.73554 3013 ft 150 kts 152°
2026-04-26 18:57 30.49334 -97.72612 2980 ft 130 kts 150°
2026-04-26 18:57 30.48606 -97.72067 2979 ft 122 kts 151°
2026-04-26 18:58 30.47875 -97.71532 2981 ft 127 kts 151°
2026-04-26 18:58 30.47113 -97.70992 2986 ft 129 kts 151°
2026-04-26 18:58 30.46355 -97.70423 2986 ft 130 kts 149°
2026-04-26 18:58 30.45595 -97.69853 2992 ft 131 kts 149°
2026-04-26 18:59 30.44831 -97.69293 2987 ft 132 kts 151°
2026-04-26 18:59 30.44051 -97.68720 2988 ft 134 kts 150°
2026-04-26 18:59 30.43262 -97.68142 2991 ft 133 kts 150°
2026-04-26 18:59 30.42483 -97.67572 2982 ft 132 kts 150°
2026-04-26 19:00 30.41695 -97.67044 2989 ft 124 kts 163°
2026-04-26 19:00 30.40909 -97.66703 2991 ft 124 kts 161°
2026-04-26 19:00 30.40071 -97.66417 2998 ft 129 kts 176°
2026-04-26 19:00 30.39165 -97.66340 2990 ft 129 kts 176°
2026-04-26 19:01 30.38337 -97.66289 2980 ft 116 kts 179°
2026-04-26 19:01 30.37554 -97.66254 2976 ft 114 kts 178°
2026-04-26 19:01 30.36747 -97.66218 2978 ft 117 kts 179°
2026-04-26 19:01 30.35935 -97.66200 2973 ft 112 kts 180°
2026-04-26 19:02 30.35134 -97.66180 2980 ft 120 kts 177°
2026-04-26 19:02 30.34285 -97.66152 2984 ft 123 kts 179°
2026-04-26 19:02 30.33444 -97.66132 2959 ft 118 kts 181°
2026-04-26 19:02 30.33174 -97.66130 2933 ft 112 kts 180°
2026-04-26 19:03 30.31785 -97.66101 2681 ft 116 kts 180°
2026-04-26 19:03 30.31018 -97.66075 2529 ft 108 kts 177°
2026-04-26 19:03 30.30280 -97.66051 2400 ft 110 kts 181°
2026-04-26 19:03 30.29491 -97.66029 2260 ft 112 kts 179°
2026-04-26 19:04 30.28736 -97.66013 2112 ft 103 kts 180°
2026-04-26 19:04 30.28054 -97.65990 1984 ft 96 kts 179°
2026-04-26 19:04 30.27416 -97.65981 1865 ft 86 kts 181°
2026-04-26 19:04 30.27011 -97.65958 1856 ft 87 kts 179°
2026-04-26 19:05 30.25861 -97.65928 1601 ft 87 kts 178°
2026-04-26 19:05 30.25221 -97.65921 1478 ft 95 kts 181°
2026-04-26 19:05 30.24543 -97.65897 1352 ft 101 kts 178°
2026-04-26 19:06 30.23845 -97.65884 1220 ft 98 kts 179°
2026-04-26 19:06 30.23174 -97.65862 1096 ft 100 kts 177°
2026-04-26 19:06 30.22483 -97.65845 967 ft 92 kts 179°
2026-04-26 19:06 30.21868 -97.65828 901 ft 79 kts 176°
2026-04-26 19:07 30.21320 -97.65820 732 ft 84 kts 175°
2026-04-26 19:07 30.20694 -97.65796 608 ft 89 kts 176°
2026-04-26 19:07 30.20143 -97.65784 494 ft 67 kts 176°
2026-04-26 19:07 30.19785 -97.65772 486 ft 43 kts 177°
2026-04-26 19:08 30.19536 -97.65768 490 ft 18 kts 181°
2026-04-26 19:08 30.19437 -97.65830 490 ft 15 kts 266°
2026-04-26 19:08 30.19438 -97.65850 490 ft 3 kts 271°
2026-04-26 19:08 30.19435 -97.65868 490 ft 7 kts 244°
2026-04-26 19:09 30.19379 -97.65892 491 ft 10 kts 180°
2026-04-26 19:09 30.19305 -97.65891 492 ft 11 kts 181°
2026-04-26 19:09 30.19220 -97.65887 491 ft 13 kts 174°
2026-04-26 19:09 30.19140 -97.65884 491 ft 12 kts 179°
2026-04-26 19:10 30.19048 -97.65882 491 ft 14 kts 179°
2026-04-26 19:10 30.18960 -97.65880 490 ft 12 kts 179°
2026-04-26 19:10 30.18886 -97.65878 483 ft 9 kts 180°
2026-04-26 19:10 30.18823 -97.65887 487 ft 10 kts 218°
2026-04-26 19:11 30.18808 -97.65961 486 ft 8 kts 267°
2026-04-26 19:11 30.18806 -97.66036 485 ft 10 kts 266°
2026-04-26 19:11 30.18805 -97.66111 485 ft 9 kts 271°
2026-04-26 19:11 30.18809 -97.66163 486 ft 6 kts 279°
2026-04-26 19:12 30.18836 -97.66165 486 ft 5 kts 41°
2026-04-26 19:12 30.18845 -97.66144 482 ft 0 kts 81°